Retour au catalogue

CZ-6A DEB

ActifPO
NORAD 61330·DEBRIS·🇨🇳 China

Lancé Aug 6, 2024 depuis Taiyuan Satellite Launch Center

Loading…

Prochains Passages (prochaines 24 heures)

TLE

FraisSource: Space-Track

Époque: Sep 13, 2026, 10:20 UTC

1 61330U 24140UT  26256.43084541  .00001323  00000-0  31992-3 0  9990
2 61330  88.8511 246.5587 0076873 329.2250  30.4460 14.50734954107217

Suivez CZ-6A DEB en temps réel avec AllMySat

Download on the App Store